EW7594 Weather Reports


Display with metric or nautical units.
time (UTC)temp
F
wind
direction
speed
MPH
gust
MPH
rain 1hr
in
rain 24hr
in
rain mn
in
humidity
%
barometer
mb
20260509002424 53 0 0.0 3.0 0.00 0.04 0.02 97 1031.9
20260509001503 53 0 0.0 2.0 0.00 0.04 0.02 97 1031.9
20260509000603 53 0 0.0 2.0 0.00 0.04 0.02 97 1032.0
20260508235703 53 0 0.0 4.0 0.00 0.04 0.02 97 1032.0
20260508234803 52 0 0.0 4.0 0.00 0.04 0.02 97 1032.0
20260508233903 52 0 0.0 1.0 0.00 0.04 0.02 97 1032.0
20260508233003 52 0 0.0 5.0 0.00 0.04 0.02 97 1032.0
20260508232403 52 0 0.0 1.0 0.00 0.04 0.02 97 1032.1
20260508231503 52 0 0.0 1.0 0.00 0.04 0.02 97 1031.9
20260508230603 52 0 0.0 1.0 0.00 0.05 0.02 97 1031.9
20260508225703 52 0 0.0 0.0 0.01 0.05 0.02 97 1031.8
20260508224803 52 0 0.0 1.0 0.01 0.05 0.02 97 1031.8
20260508223903 52 0 0.0 0.0 0.01 0.05 0.02 97 1031.7
20260508223024 51 0 0.0 0.0 0.01 0.05 0.02 97 1031.6
20260508222403 51 0 0.0 0.0 0.01 0.05 0.02 97 1031.5
20260508221503 51 0 0.0 0.0 0.01 0.05 0.02 97 1031.6
20260508220603 51 0 0.0 0.0 0.01 0.05 0.02 97 1031.5
20260508215703 51 0 0.0 0.0 0.00 0.04 0.01 97 1031.5
20260508214803 51 0 0.0 1.0 0.00 0.04 0.01 97 1031.4
20260508213924 51 0 0.0 1.0 0.00 0.04 0.01 97 1031.4
20260508213003 51 0 0.0 0.0 0.00 0.04 0.01 97 1031.2
20260508212403 51 0 0.0 1.0 0.00 0.04 0.01 97 1031.1
20260508211503 51 0 0.0 2.0 0.00 0.04 0.01 97 1031.0
20260508210624 51 0 0.0 0.0 0.00 0.04 0.01 97 1031.0
20260508205703 51 0 0.0 0.0 0.00 0.04 0.01 97 1031.1
20260508204824 51 0 0.0 0.0 0.01 0.04 0.01 97 1031.0
20260508203904 51 0 0.0 0.0 0.01 0.04 0.01 97 1031.0
20260508203024 51 0 0.0 1.0 0.01 0.04 0.01 97 1030.9
20260508202403 51 0 0.0 0.0 0.01 0.04 0.01 97 1030.9
20260508201503 51 0 0.0 0.0 0.01 0.04 0.01 97 1030.9
20260508200624 50 0 0.0 0.0 0.01 0.04 0.01 97 1030.7
20260508195703 50 0 0.0 1.0 0.01 0.04 0.01 97 1030.6
20260508194803 50 0 0.0 0.0 0.00 0.03 0.00 97 1030.6
20260508193903 50 0 0.0 0.0 0.00 0.03 0.00 97 1030.5
20260508193003 50 0 0.0 0.0 0.00 0.03 0.00 97 1030.5
20260508192403 50 0 0.0 0.0 0.00 0.03 0.00 97 1030.4
20260508191503 50 0 0.0 2.0 0.00 0.03 0.00 97 1030.4
20260508190624 50 0 0.0 0.0 0.00 0.03 0.00 97 1030.4
20260508185703 50 0 0.0 0.0 0.00 0.03 0.00 97 1030.4
20260508184803 50 0 0.0 2.0 0.00 0.03 0.00 97 1030.3
20260508183924 50 0 0.0 0.0 0.00 0.03 0.00 97 1030.4
20260508183003 50 0 0.0 1.0 0.00 0.03 0.00 97 1030.4
20260508182403 50 0 0.0 0.0 0.00 0.03 0.00 97 1030.4
20260508181503 50 0 0.0 1.0 0.00 0.03 0.00 97 1030.5
20260508180603 50 0 0.0 2.0 0.00 0.03 0.00 97 1030.5
20260508175703 50 0 0.0 0.0 0.00 0.03 0.00 97 1030.5
20260508174803 50 0 0.0 1.0 0.00 0.03 0.00 97 1030.6
20260508173903 50 0 0.0 1.0 0.00 0.03 0.00 97 1030.6
20260508173003 50 0 0.0 2.0 0.00 0.03 0.00 97 1030.6
20260508172403 50 0 0.0 2.0 0.00 0.03 0.00 97 1030.7
20260508171503 50 0 0.0 1.0 0.00 0.03 0.00 97 1030.6
20260508170603 50 0 0.0 1.0 0.00 0.03 0.00 97 1030.6
20260508165703 50 0 0.0 1.0 0.00 0.03 0.00 97 1030.5
20260508164803 50 0 0.0 2.0 0.00 0.03 0.00 97 1030.6
20260508163903 50 0 0.0 0.0 0.00 0.03 0.00 97 1030.5
20260508163003 50 0 0.0 4.0 0.00 0.03 0.00 97 1030.5
20260508162403 50 0 0.0 2.0 0.00 0.03 0.00 97 1030.4
20260508161503 50 0 0.0 3.0 0.00 0.03 0.00 97 1030.5
20260508160624 50 0 0.0 3.0 0.00 0.03 0.00 97 1030.5
20260508155703 50 0 0.0 3.0 0.00 0.03 0.00 97 1030.6
20260508154803 50 0 0.0 2.0 0.00 0.03 0.00 97 1030.7
20260508153903 50 0 0.0 2.0 0.00 0.03 0.00 96 1030.6
20260508153003 50 0 0.0 1.0 0.00 0.03 0.00 96 1030.6
20260508152403 50 0 0.0 2.0 0.00 0.03 0.00 96 1030.7
20260508151503 50 0 0.0 1.0 0.00 0.03 0.00 96 1030.7
20260508150624 50 0 0.0 1.0 0.00 0.03 0.00 96 1030.7
20260508145703 50 0 0.0 3.0 0.00 0.03 0.00 96 1030.7
20260508144803 50 0 0.0 1.0 0.01 0.03 0.00 96 1030.7
20260508143903 50 0 0.0 4.0 0.01 0.03 0.00 96 1030.8
20260508143024 50 0 0.0 3.0 0.01 0.03 0.00 96 1030.9
20260508142403 50 0 0.0 3.0 0.01 0.03 0.03 96 1030.9
20260508141503 50 0 0.0 2.0 0.01 0.03 0.03 96 1030.9
20260508140603 50 0 0.0 3.0 0.01 0.03 0.03 96 1030.9
20260508135724 50 0 0.0 2.0 0.01 0.03 0.03 96 1030.9
20260508134803 50 0 0.0 2.0 0.00 0.02 0.02 96 1031.1
20260508133903 50 0 0.0 2.0 0.00 0.02 0.02 96 1031.1
20260508133003 50 0 0.0 2.0 0.00 0.02 0.02 96 1031.2
20260508132424 50 0 0.0 2.0 0.00 0.02 0.02 96 1031.2
20260508131503 50 0 0.0 1.0 0.00 0.02 0.02 96 1031.3
20260508130603 50 0 0.0 1.0 0.00 0.02 0.02 96 1031.3
20260508125703 50 0 0.0 1.0 0.00 0.02 0.02 96 1031.4
20260508124803 50 0 0.0 4.0 0.00 0.02 0.02 96 1031.4
20260508123903 50 0 0.0 3.0 0.00 0.02 0.02 95 1031.4
20260508123003 50 0 0.0 6.0 0.00 0.02 0.02 95 1031.5
20260508122403 51 0 0.0 6.0 0.00 0.02 0.02 95 1031.4
20260508121503 51 0 0.0 2.0 0.00 0.02 0.02 95 1031.4
20260508120603 51 0 0.0 2.0 0.00 0.02 0.02 95 1031.4
20260508115703 51 0 0.0 1.0 0.00 0.02 0.02 95 1031.4
20260508114803 50 0 0.0 1.0 0.00 0.02 0.02 95 1031.4
20260508113903 51 0 0.0 1.0 0.00 0.02 0.02 95 1031.3
20260508113004 51 0 0.0 1.0 0.00 0.02 0.02 95 1031.4
20260508112403 51 0 0.0 1.0 0.00 0.02 0.02 95 1031.3
20260508111503 51 0 0.0 4.0 0.00 0.02 0.02 95 1031.3
20260508110603 51 0 0.0 4.0 0.00 0.02 0.02 94 1031.2
20260508105703 51 0 0.0 4.0 0.00 0.02 0.02 94 1031.1
20260508104803 51 0 0.0 1.0 0.00 0.02 0.02 94 1031.1
20260508103903 51 0 0.0 3.0 0.00 0.02 0.02 94 1031.1
20260508103003 51 0 0.0 3.0 0.00 0.02 0.02 94 1031.2
20260508102425 51 223 1.0 5.0 0.00 0.02 0.02 93 1031.2
20260508101503 51 216 1.0 5.0 0.00 0.02 0.02 93 1031.2
20260508100624 51 224 1.0 4.0 0.00 0.02 0.02 93 1031.2
20260508095703 51 0 0.0 3.0 0.00 0.02 0.02 92 1031.2
20260508094803 51 0 0.0 5.0 0.00 0.02 0.02 92 1031.3
20260508093903 51 0 0.0 3.0 0.00 0.02 0.02 92 1031.2
20260508093024 51 0 0.0 3.0 0.00 0.02 0.02 91 1031.2
20260508092403 51 0 0.0 0.0 0.00 0.02 0.02 91 1031.2
20260508091524 51 0 0.0 3.0 0.00 0.02 0.02 90 1031.2
20260508090603 51 0 0.0 2.0 0.00 0.02 0.02 90 1031.1
20260508085703 51 0 0.0 4.0 0.00 0.02 0.02 90 1031.1
20260508084803 52 0 0.0 4.0 0.00 0.02 0.02 89 1031.1
20260508083903 52 0 0.0 3.0 0.00 0.02 0.02 89 1031.0
20260508083003 52 219 1.0 6.0 0.00 0.02 0.02 89 1031.1
20260508082403 52 0 0.0 4.0 0.00 0.02 0.02 89 1031.1
20260508081504 53 0 0.0 6.0 0.00 0.02 0.02 90 1030.9
20260508080604 53 0 0.0 4.0 0.00 0.02 0.02 91 1030.8
20260508075704 53 0 0.0 3.0 0.00 0.02 0.02 91 1030.8
20260508074803 53 0 0.0 3.0 0.00 0.02 0.02 91 1030.7
20260508073904 53 0 0.0 4.0 0.00 0.02 0.02 91 1030.7
20260508073004 53 234 1.0 4.0 0.00 0.02 0.02 90 1030.6
20260508072404 54 237 1.0 6.0 0.00 0.02 0.02 90 1030.6
20260508071524 54 227 1.0 6.0 0.00 0.02 0.02 89 1030.6
20260508070603 54 223 1.0 3.0 0.00 0.02 0.02 90 1030.6
20260508065703 54 229 1.0 5.0 0.00 0.02 0.02 89 1030.7
20260508064803 54 238 1.0 5.0 0.00 0.02 0.02 89 1030.7
20260508063903 54 233 1.0 4.0 0.00 0.02 0.02 89 1030.6
20260508063004 55 222 1.0 5.0 0.00 0.02 0.02 89 1030.7
20260508062424 55 218 1.0 5.0 0.00 0.02 0.02 89 1030.7
20260508061525 55 234 1.0 4.0 0.00 0.02 0.02 90 1030.6
20260508060603 55 222 2.0 4.0 0.00 0.02 0.02 89 1030.5
20260508055703 55 225 2.0 7.0 0.00 0.02 0.02 88 1030.5
20260508054803 56 221 1.0 8.0 0.00 0.02 0.02 87 1030.5
20260508053903 56 229 1.0 6.0 0.00 0.02 0.02 87 1030.5
20260508053024 56 0 0.0 4.0 0.00 0.02 0.02 87 1030.5
20260508052403 56 230 1.0 4.0 0.00 0.02 0.02 87 1030.6
20260508051504 56 223 1.0 4.0 0.00 0.02 0.02 88 1030.6
20260508050603 56 229 1.0 4.0 0.00 0.02 0.02 87 1030.6
20260508045703 56 222 2.0 6.0 0.00 0.02 0.02 86 1030.5
20260508044803 56 217 2.0 7.0 0.00 0.02 0.02 86 1030.6
20260508043924 56 0 0.0 7.0 0.00 0.02 0.02 86 1030.6
20260508043004 56 210 1.0 5.0 0.00 0.02 0.02 86 1030.7
20260508042403 56 209 1.0 5.0 0.00 0.02 0.02 86 1030.7
20260508041524 55 225 1.0 5.0 0.01 0.02 0.02 90 1030.9
20260508040624 55 0 0.0 5.0 0.01 0.02 0.02 91 1031.0
20260508035703 55 216 1.0 7.0 0.01 0.02 0.02 91 1031.1
20260508034803 55 218 2.0 6.0 0.01 0.02 0.02 91 1031.2
20260508033924 55 223 1.0 4.0 0.01 0.02 0.02 93 1031.2
20260508033003 54 233 1.0 5.0 0.01 0.02 0.02 93 1031.4
20260508032403 54 226 1.0 5.0 0.01 0.02 0.02 92 1031.4
20260508031503 55 229 1.0 5.0 0.00 0.02 0.02 92 1031.4
20260508030603 55 221 1.0 5.0 0.01 0.02 0.02 92 1031.5
20260508025703 54 224 1.0 8.0 0.01 0.02 0.02 93 1031.7
20260508024804 55 213 1.0 6.0 0.01 0.02 0.02 92 1031.7
20260508023924 55 0 0.0 3.0 0.01 0.02 0.02 93 1031.7
20260508023003 54 215 2.0 6.0 0.01 0.02 0.02 93 1031.9
20260508022403 54 220 2.0 6.0 0.01 0.02 0.02 93 1032.0
20260508021503 54 210 2.0 8.0 0.01 0.02 0.02 92 1032.1
20260508020603 54 227 1.0 5.0 0.00 0.01 0.01 92 1032.2
20260508015703 54 226 1.0 8.0 0.00 0.01 0.01 92 1032.4
20260508014803 54 216 1.0 6.0 0.00 0.01 0.01 92 1032.6
20260508013903 54 205 2.0 9.0 0.00 0.01 0.01 93 1032.6
20260508013003 53 222 1.0 5.0 0.00 0.01 0.01 93 1032.7
20260508012403 53 233 1.0 5.0 0.00 0.01 0.01 93 1032.8
20260508011524 53 225 1.0 5.0 0.00 0.01 0.01 93 1032.9
20260508010603 53 208 1.0 5.0 0.00 0.01 0.01 93 1032.9
20260508005703 53 225 1.0 5.0 0.00 0.01 0.01 93 1032.9
20260508004803 53 215 1.0 6.0 0.00 0.01 0.01 92 1032.8
20260508003903 53 223 1.0 5.0 0.00 0.01 0.01 92 1032.9
20260508003004 53 226 1.0 4.0 0.00 0.01 0.01 92 1032.7